COSMOS 1629 1 15574U 85016A 21056.39461372 -.00000076 00000-0 00000-0 0 9995 2 15574 12.5764 330.0383 0003166 164.1297 57.3459 1.00160303131029 SL-12 R/B(2) 1 15581U 85016F 21054.80355729 .00000089 00000-0 00000-0 0 9998 2 15581 13.0211 331.5652 0021882 198.2472 337.1478 0.99400576102656